Year,Month,Day,Hour,Minute,Value (Times are PST for temperature in C)
2007,11,16,08,42,7.70
2007,11,16,08,43,7.70
2007,11,16,08,44,7.70
2007,11,16,08,45,7.70
2007,11,16,08,46,7.70
2007,11,16,08,47,7.70
2007,11,16,08,48,7.80
2007,11,16,08,49,7.80
2007,11,16,08,50,7.80
2007,11,16,08,51,7.80
2007,11,16,08,52,7.80
2007,11,16,08,53,7.80
2007,11,16,08,54,7.80
2007,11,16,08,55,7.80
2007,11,16,08,56,7.80
2007,11,16,08,57,7.90
2007,11,16,08,58,7.90
2007,11,16,08,59,7.90
2007,11,16,09,00,7.90
2007,11,16,09,01,8.00
2007,11,16,09,02,8.00
2007,11,16,09,03,8.00
2007,11,16,09,04,8.10
2007,11,16,09,05,8.10
2007,11,16,09,06,8.10
2007,11,16,09,07,8.10
2007,11,16,09,08,8.10
2007,11,16,09,09,8.20
2007,11,16,09,10,8.20
2007,11,16,09,11,8.20
2007,11,16,09,12,8.20
2007,11,16,09,13,8.20
2007,11,16,09,14,8.20
2007,11,16,09,15,8.20
2007,11,16,09,16,8.20
2007,11,16,09,17,8.30
2007,11,16,09,18,8.30
2007,11,16,09,19,8.30
2007,11,16,09,20,8.30
2007,11,16,09,21,8.40
2007,11,16,09,22,8.40
2007,11,16,09,23,8.50
2007,11,16,09,24,8.50
2007,11,16,09,25,8.50
2007,11,16,09,26,8.60
2007,11,16,09,27,8.60
2007,11,16,09,28,8.70
2007,11,16,09,29,8.70
2007,11,16,09,30,8.80
2007,11,16,09,31,8.80
2007,11,16,09,32,8.90
2007,11,16,09,33,9.00
2007,11,16,09,34,9.10
2007,11,16,09,35,9.20
2007,11,16,09,36,9.30
2007,11,16,09,37,9.50
2007,11,16,09,38,9.60
2007,11,16,09,39,9.60
2007,11,16,09,40,9.70
2007,11,16,09,41,9.70
2007,11,16,09,42,9.70
2007,11,16,09,43,9.70
2007,11,16,09,44,9.70
2007,11,16,09,45,9.70
2007,11,16,09,46,9.70
2007,11,16,09,47,9.70
2007,11,16,09,48,9.70
2007,11,16,09,49,9.80
2007,11,16,09,50,9.90
2007,11,16,09,51,10.00
2007,11,16,09,52,10.10
2007,11,16,09,53,10.20
2007,11,16,09,54,10.20
2007,11,16,09,55,10.30
2007,11,16,09,56,10.30
2007,11,16,09,57,10.30
2007,11,16,09,58,10.30
2007,11,16,09,59,10.30
2007,11,16,10,00,10.30
2007,11,16,10,01,10.30
2007,11,16,10,02,10.30
2007,11,16,10,03,10.30
2007,11,16,10,04,10.30
2007,11,16,10,05,10.30
2007,11,16,10,06,10.30
2007,11,16,10,07,10.30
2007,11,16,10,08,10.40
2007,11,16,10,09,10.40
2007,11,16,10,10,10.40
2007,11,16,10,11,10.40
2007,11,16,10,12,10.50
2007,11,16,10,13,10.50
2007,11,16,10,14,10.50
2007,11,16,10,15,10.50
2007,11,16,10,16,10.60
2007,11,16,10,17,10.60
2007,11,16,10,18,10.60
2007,11,16,10,19,10.60
2007,11,16,10,20,10.60
2007,11,16,10,21,10.60
2007,11,16,10,22,10.60
2007,11,16,10,23,10.60
2007,11,16,10,24,10.60
2007,11,16,10,25,10.60
2007,11,16,10,26,10.60
2007,11,16,10,27,10.70
2007,11,16,10,28,10.70
2007,11,16,10,29,10.70
2007,11,16,10,30,10.70
2007,11,16,10,31,10.70
2007,11,16,10,32,10.70
2007,11,16,10,33,10.70
2007,11,16,10,34,10.70
2007,11,16,10,35,10.70
2007,11,16,10,36,10.70
2007,11,16,10,37,10.70
2007,11,16,10,38,10.80
2007,11,16,10,39,10.70
2007,11,16,10,40,10.80
2007,11,16,10,41,10.70
2007,11,16,10,42,10.80
2007,11,16,10,43,10.80
2007,11,16,10,44,10.80
2007,11,16,10,45,10.80
2007,11,16,10,46,10.80
2007,11,16,10,47,10.80
2007,11,16,10,48,10.80
2007,11,16,10,49,10.90
2007,11,16,10,50,10.90
2007,11,16,10,51,10.90
2007,11,16,10,52,10.90
2007,11,16,10,53,10.90
2007,11,16,10,54,10.90
2007,11,16,10,55,10.90
2007,11,16,10,56,10.90
2007,11,16,10,57,10.90
2007,11,16,10,58,10.90
2007,11,16,10,59,10.90
2007,11,16,11,00,10.90
2007,11,16,11,01,10.90
2007,11,16,11,02,10.90
2007,11,16,11,03,10.90
2007,11,16,11,04,10.90
2007,11,16,11,05,10.90
2007,11,16,11,06,10.90
2007,11,16,11,07,10.90
2007,11,16,11,08,10.90
2007,11,16,11,09,11.00
2007,11,16,11,10,10.90
2007,11,16,11,11,10.90
2007,11,16,11,12,10.90
2007,11,16,11,13,11.00
2007,11,16,11,14,11.00
2007,11,16,11,15,11.00
2007,11,16,11,16,11.10
2007,11,16,11,17,11.10
2007,11,16,11,18,11.20
2007,11,16,11,19,11.20
2007,11,16,11,20,11.30
2007,11,16,11,21,11.30
2007,11,16,11,22,11.30
2007,11,16,11,23,11.30
2007,11,16,11,24,11.40
2007,11,16,11,25,11.40
2007,11,16,11,26,11.40
2007,11,16,11,27,11.50
2007,11,16,11,28,11.60
2007,11,16,11,29,11.60
2007,11,16,11,30,11.70
2007,11,16,11,31,11.80
2007,11,16,11,32,11.90
2007,11,16,11,33,11.90
2007,11,16,11,34,11.90
2007,11,16,11,35,12.00
2007,11,16,11,36,12.00
2007,11,16,11,37,12.00
2007,11,16,11,38,12.00
2007,11,16,11,39,12.00
2007,11,16,11,40,12.10
2007,11,16,11,41,12.10
2007,11,16,11,42,12.10
2007,11,16,11,43,12.20
2007,11,16,11,44,12.20
2007,11,16,11,45,12.20
2007,11,16,11,46,12.20
2007,11,16,11,47,12.30
2007,11,16,11,48,12.30
2007,11,16,11,49,12.30
2007,11,16,11,50,12.30
2007,11,16,11,51,12.40
2007,11,16,11,52,12.50
2007,11,16,11,53,12.50
2007,11,16,11,54,12.50
2007,11,16,11,55,12.50
2007,11,16,11,56,12.50
2007,11,16,11,57,12.50
2007,11,16,11,58,12.50
2007,11,16,11,59,12.60
2007,11,16,12,00,12.60
2007,11,16,12,01,12.60
2007,11,16,12,02,12.60
2007,11,16,12,03,12.60
2007,11,16,12,04,12.60
2007,11,16,12,05,12.60
2007,11,16,12,06,12.70
2007,11,16,12,07,12.70
2007,11,16,12,08,12.70
2007,11,16,12,09,12.60
2007,11,16,12,10,12.50
2007,11,16,12,11,12.50
2007,11,16,12,12,12.60
2007,11,16,12,13,12.60
2007,11,16,12,14,12.60
2007,11,16,12,15,12.60
2007,11,16,12,16,12.60
2007,11,16,12,17,12.60
2007,11,16,12,18,12.60
2007,11,16,12,19,12.60
2007,11,16,12,20,12.60
2007,11,16,12,21,12.50
2007,11,16,12,22,12.50
2007,11,16,12,23,12.30
2007,11,16,12,24,12.20
2007,11,16,12,25,12.10
2007,11,16,12,26,12.00
2007,11,16,12,27,12.00
2007,11,16,12,28,12.00
2007,11,16,12,29,11.90
2007,11,16,12,30,11.80
2007,11,16,12,31,11.70
2007,11,16,12,32,11.60
2007,11,16,12,33,11.60
2007,11,16,12,34,11.60
2007,11,16,12,35,11.50
2007,11,16,12,36,11.40
2007,11,16,12,37,11.40
2007,11,16,12,38,11.40
2007,11,16,12,39,11.40
2007,11,16,12,40,11.40
2007,11,16,12,41,11.50
2007,11,16,12,42,11.60
2007,11,16,12,43,11.70
2007,11,16,12,44,11.80
2007,11,16,12,45,11.80
2007,11,16,12,46,11.80
2007,11,16,12,47,11.80
2007,11,16,12,48,11.80
2007,11,16,12,49,11.80
2007,11,16,12,50,11.70
2007,11,16,12,51,11.70
2007,11,16,12,52,11.60
2007,11,16,12,53,11.60
2007,11,16,12,54,11.50
2007,11,16,12,55,11.40
2007,11,16,12,56,11.30
2007,11,16,12,57,11.30
2007,11,16,12,58,11.30
2007,11,16,12,59,11.20
2007,11,16,13,00,11.20
2007,11,16,13,01,11.20
2007,11,16,13,02,11.20
2007,11,16,13,03,11.20
2007,11,16,13,04,11.20
2007,11,16,13,05,11.20
2007,11,16,13,06,11.10
2007,11,16,13,07,11.10
2007,11,16,13,08,11.10
2007,11,16,13,09,11.20
2007,11,16,13,10,11.20
2007,11,16,13,11,11.30
2007,11,16,13,12,11.40
2007,11,16,13,13,11.40
2007,11,16,13,14,11.50
2007,11,16,13,15,11.50
2007,11,16,13,16,11.60
2007,11,16,13,17,11.60
2007,11,16,13,18,11.60
2007,11,16,13,19,11.70
2007,11,16,13,20,11.80
2007,11,16,13,21,11.80
2007,11,16,13,22,11.90
2007,11,16,13,23,11.90
2007,11,16,13,24,11.90
2007,11,16,13,25,12.00
2007,11,16,13,26,11.90
2007,11,16,13,27,11.90
2007,11,16,13,28,11.90
2007,11,16,13,29,11.90
2007,11,16,13,30,12.00
2007,11,16,13,31,12.00
2007,11,16,13,32,12.10
2007,11,16,13,33,12.10
2007,11,16,13,34,12.10
2007,11,16,13,35,12.10
2007,11,16,13,36,12.10
2007,11,16,13,37,12.10
2007,11,16,13,38,12.20
2007,11,16,13,39,12.20
2007,11,16,13,40,12.30
2007,11,16,13,41,12.30
2007,11,16,13,42,12.30
2007,11,16,13,43,12.40
2007,11,16,13,44,12.40
2007,11,16,13,45,12.50
2007,11,16,13,46,12.50
2007,11,16,13,47,12.60
2007,11,16,13,48,12.60
2007,11,16,13,49,12.60
2007,11,16,13,50,12.60
2007,11,16,13,51,12.60
2007,11,16,13,52,12.50
2007,11,16,13,53,12.40
2007,11,16,13,54,12.40
2007,11,16,13,55,12.30
2007,11,16,13,56,12.30
2007,11,16,13,57,12.30
2007,11,16,13,58,12.30
2007,11,16,13,59,12.30
2007,11,16,14,00,12.10
2007,11,16,14,01,12.00
2007,11,16,14,02,11.90
2007,11,16,14,03,11.90
2007,11,16,14,04,11.90
2007,11,16,14,05,12.00
2007,11,16,14,06,12.00
2007,11,16,14,07,12.00
2007,11,16,14,08,11.90
2007,11,16,14,09,11.90
2007,11,16,14,10,11.80
2007,11,16,14,11,11.70
2007,11,16,14,12,11.70
2007,11,16,14,13,11.70
2007,11,16,14,14,11.60
2007,11,16,14,15,11.50
2007,11,16,14,16,11.50
2007,11,16,14,17,11.50
2007,11,16,14,18,11.40
2007,11,16,14,19,11.30
2007,11,16,14,20,11.30
2007,11,16,14,21,11.30
2007,11,16,14,22,11.40
2007,11,16,14,23,11.50
2007,11,16,14,24,11.50
2007,11,16,14,25,11.30
2007,11,16,14,26,11.20
2007,11,16,14,27,11.10
2007,11,16,14,28,11.00
2007,11,16,14,29,10.80
2007,11,16,14,30,10.80
2007,11,16,14,31,10.70
2007,11,16,14,32,10.60
2007,11,16,14,33,10.60
2007,11,16,14,34,10.50
2007,11,16,14,35,10.40
2007,11,16,14,36,10.30
2007,11,16,14,37,10.30
2007,11,16,14,38,10.30
2007,11,16,14,39,10.20
2007,11,16,14,40,10.00
2007,11,16,14,41,9.90
2007,11,16,14,42,9.90
2007,11,16,14,43,9.80
2007,11,16,14,44,9.80
2007,11,16,14,45,9.80
2007,11,16,14,46,9.80
2007,11,16,14,47,9.70
2007,11,16,14,48,9.60
2007,11,16,14,49,9.50
2007,11,16,14,50,9.40
2007,11,16,14,51,9.40
2007,11,16,14,55,9.30
2007,11,16,14,56,9.30
2007,11,16,14,57,9.30
2007,11,16,14,58,9.30
2007,11,16,14,59,9.30
2007,11,16,15,00,9.20
2007,11,16,15,01,9.10
2007,11,16,15,02,9.00
2007,11,16,15,03,9.00
2007,11,16,15,04,8.90
2007,11,16,15,05,8.90
2007,11,16,15,06,8.90
2007,11,16,15,07,9.00
2007,11,16,15,08,9.00
2007,11,16,15,09,9.00
2007,11,16,15,10,9.00
2007,11,16,15,11,9.00
2007,11,16,15,12,9.10
2007,11,16,15,13,9.10
2007,11,16,15,14,9.10
2007,11,16,15,15,9.10
2007,11,16,15,16,9.10
2007,11,16,15,17,9.00
2007,11,16,15,18,8.90
2007,11,16,15,19,8.90
2007,11,16,15,20,8.80
2007,11,16,15,21,8.80
2007,11,16,15,22,8.70
2007,11,16,15,23,8.60
2007,11,16,15,24,8.50
2007,11,16,15,25,8.50
2007,11,16,15,26,8.40
2007,11,16,15,27,8.40
2007,11,16,15,28,8.30
2007,11,16,15,29,8.30
2007,11,16,15,30,8.30
2007,11,16,15,31,8.30
2007,11,16,15,32,8.30
2007,11,16,15,33,8.20
2007,11,16,15,34,8.20
2007,11,16,15,35,8.20
2007,11,16,15,36,8.20
2007,11,16,15,37,8.20
2007,11,16,15,38,8.20
2007,11,16,15,39,8.20
2007,11,16,15,40,8.20
2007,11,16,15,41,8.20
2007,11,16,15,42,8.20
2007,11,16,15,43,8.20
2007,11,16,15,44,8.20
2007,11,16,15,45,8.20
2007,11,16,15,46,8.20
2007,11,16,15,47,8.20
2007,11,16,15,48,8.20
2007,11,16,15,49,8.20
2007,11,16,15,50,8.20
2007,11,16,15,51,8.20
2007,11,16,15,52,8.20
2007,11,16,15,53,8.20
2007,11,16,15,54,8.20
2007,11,16,15,55,8.10
2007,11,16,15,56,8.10
2007,11,16,15,57,8.20
2007,11,16,15,58,8.20
2007,11,16,15,59,8.20
2007,11,16,16,00,8.20
2007,11,16,16,01,8.20
2007,11,16,16,02,8.30
2007,11,16,16,03,8.20
2007,11,16,16,04,8.20
2007,11,16,16,05,8.20
2007,11,16,16,06,8.20
2007,11,16,16,07,8.10
2007,11,16,16,08,8.10
2007,11,16,16,09,8.10
2007,11,16,16,10,8.10
2007,11,16,16,11,8.10
2007,11,16,16,12,8.10
2007,11,16,16,13,8.10
2007,11,16,16,14,8.10
2007,11,16,16,15,8.10
2007,11,16,16,16,8.10
2007,11,16,16,17,8.10
2007,11,16,16,18,8.20
2007,11,16,16,19,8.20
2007,11,16,16,20,8.20
2007,11,16,16,21,8.20
2007,11,16,16,22,8.20
2007,11,16,16,23,8.20
2007,11,16,16,24,8.20
2007,11,16,16,25,8.20
2007,11,16,16,26,8.20
2007,11,16,16,27,8.20
2007,11,16,16,28,8.20
2007,11,16,16,29,8.20
2007,11,16,16,30,8.20
2007,11,16,16,31,8.20
2007,11,16,16,32,8.20
2007,11,16,16,33,8.20
2007,11,16,16,34,8.20
2007,11,16,16,35,8.20
2007,11,16,16,36,8.20
2007,11,16,16,37,8.20
2007,11,16,16,38,8.10
2007,11,16,16,39,8.10
2007,11,16,16,40,8.10
2007,11,16,16,41,8.10
2007,11,16,16,42,8.10
2007,11,16,16,43,8.10
2007,11,16,16,44,8.00
2007,11,16,16,45,8.00
2007,11,16,16,46,7.90
2007,11,16,16,47,7.90
2007,11,16,16,48,7.90
2007,11,16,16,49,7.90
2007,11,16,16,50,7.90
2007,11,16,16,51,7.90
2007,11,16,16,52,7.80
2007,11,16,16,53,7.80
2007,11,16,16,54,7.80
2007,11,16,16,55,7.80
2007,11,16,16,56,7.80
2007,11,16,16,57,7.80
2007,11,16,16,58,7.70
2007,11,16,16,59,7.70
2007,11,16,17,00,7.70
2007,11,16,17,01,7.70
2007,11,16,17,02,7.60
2007,11,16,17,03,7.60
2007,11,16,17,04,7.60
2007,11,16,17,05,7.60
2007,11,16,17,06,7.60
2007,11,16,17,07,7.60
2007,11,16,17,08,7.70
2007,11,16,17,09,7.70
2007,11,16,17,10,7.70
2007,11,16,17,11,7.70
2007,11,16,17,12,7.70
2007,11,16,17,13,7.70
2007,11,16,17,14,7.70
2007,11,16,17,15,7.70
2007,11,16,17,16,7.70
2007,11,16,17,17,7.70
2007,11,16,17,18,7.70
2007,11,16,17,19,7.60
2007,11,16,17,20,7.60
2007,11,16,17,21,7.60
2007,11,16,17,22,7.60
2007,11,16,17,23,7.60
2007,11,16,17,24,7.60
2007,11,16,17,25,7.60
2007,11,16,17,26,7.50
2007,11,16,17,27,7.50
2007,11,16,17,28,7.50
2007,11,16,17,29,7.50
2007,11,16,17,30,7.50
2007,11,16,17,31,7.50
2007,11,16,17,32,7.50
2007,11,16,17,33,7.50
2007,11,16,17,34,7.60
2007,11,16,17,35,7.60
2007,11,16,17,36,7.50
2007,11,16,17,37,7.50
2007,11,16,17,38,7.50
2007,11,16,17,39,7.50
2007,11,16,17,40,7.50
2007,11,16,17,41,7.50
2007,11,16,17,42,7.50
2007,11,16,17,43,7.50
2007,11,16,17,44,7.50
2007,11,16,17,45,7.40
2007,11,16,17,46,7.40
2007,11,16,17,47,7.40
2007,11,16,17,48,7.40
2007,11,16,17,49,7.40
2007,11,16,17,50,7.40
2007,11,16,17,51,7.30
2007,11,16,17,52,7.30
2007,11,16,17,53,7.30
2007,11,16,17,54,7.30
2007,11,16,17,55,7.30
2007,11,16,17,56,7.30
2007,11,16,17,57,7.30
2007,11,16,17,58,7.30
2007,11,16,17,59,7.30
2007,11,16,18,00,7.30
2007,11,16,18,01,7.30
2007,11,16,18,02,7.30
2007,11,16,18,03,7.30
2007,11,16,18,04,7.30
2007,11,16,18,05,7.30
2007,11,16,18,06,7.20
2007,11,16,18,07,7.20
2007,11,16,18,08,7.20
2007,11,16,18,09,7.20
2007,11,16,18,10,7.20
2007,11,16,18,11,7.20
2007,11,16,18,12,7.10
2007,11,16,18,13,7.10
2007,11,16,18,14,7.10
2007,11,16,18,15,7.10
2007,11,16,18,16,7.10
2007,11,16,18,17,7.10
2007,11,16,18,18,7.10
2007,11,16,18,19,7.10
2007,11,16,18,20,7.10
2007,11,16,18,21,7.00
2007,11,16,18,22,7.00
2007,11,16,18,23,6.90
2007,11,16,18,24,6.90
2007,11,16,18,25,6.90
2007,11,16,18,26,6.90
2007,11,16,18,27,6.90
2007,11,16,18,28,6.90
2007,11,16,18,29,6.90
2007,11,16,18,30,6.90
2007,11,16,18,31,6.90
2007,11,16,18,32,6.90
2007,11,16,18,33,6.90
2007,11,16,18,34,6.90
2007,11,16,18,35,6.90
2007,11,16,18,36,7.00
2007,11,16,18,37,7.00
2007,11,16,18,38,7.00
2007,11,16,18,39,7.10
2007,11,16,18,40,7.10
2007,11,16,18,41,7.10
2007,11,16,18,42,7.10
2007,11,16,18,43,7.20
2007,11,16,18,44,7.20
2007,11,16,18,45,7.20
2007,11,16,18,46,7.20
2007,11,16,18,47,7.20
2007,11,16,18,48,7.20
2007,11,16,18,49,7.20
2007,11,16,18,50,7.20
2007,11,16,18,51,7.20
2007,11,16,18,52,7.20
2007,11,16,18,53,7.20
2007,11,16,18,54,7.20
2007,11,16,18,55,7.20
2007,11,16,18,56,7.20
2007,11,16,18,57,7.20
2007,11,16,18,58,7.20
2007,11,16,18,59,7.20
2007,11,16,19,00,7.20
2007,11,16,19,01,7.20
2007,11,16,19,02,7.20
2007,11,16,19,03,7.20
2007,11,16,19,04,7.20
2007,11,16,19,05,7.20
2007,11,16,19,06,7.20
2007,11,16,19,07,7.20
2007,11,16,19,08,7.20
2007,11,16,19,09,7.20
2007,11,16,19,10,7.20
2007,11,16,19,11,7.20
2007,11,16,19,12,7.30
2007,11,16,19,13,7.30
2007,11,16,19,14,7.30
2007,11,16,19,15,7.30
2007,11,16,19,16,7.30
2007,11,16,19,17,7.30
2007,11,16,19,18,7.30
2007,11,16,19,19,7.40
2007,11,16,19,20,7.40
2007,11,16,19,21,7.50
2007,11,16,19,22,7.60
2007,11,16,19,23,7.60
2007,11,16,19,24,7.60
2007,11,16,19,25,7.60
2007,11,16,19,26,7.60
2007,11,16,19,27,7.60
2007,11,16,19,28,7.60
2007,11,16,19,29,7.70
2007,11,16,19,30,7.70
2007,11,16,19,31,7.70
2007,11,16,19,32,7.80
2007,11,16,19,33,7.80
2007,11,16,19,34,7.80
2007,11,16,19,35,7.80
2007,11,16,19,36,7.80
2007,11,16,19,37,7.70
2007,11,16,19,38,7.70
2007,11,16,19,39,7.70
2007,11,16,19,40,7.70
2007,11,16,19,41,7.70
2007,11,16,19,42,7.60
2007,11,16,19,43,7.60
2007,11,16,19,44,7.60
2007,11,16,19,45,7.60
2007,11,16,19,46,7.60
2007,11,16,19,47,7.60
2007,11,16,19,48,7.60
2007,11,16,19,49,7.70
2007,11,16,19,50,7.70
2007,11,16,19,51,7.80
2007,11,16,19,52,7.80
2007,11,16,19,53,7.80
2007,11,16,19,54,7.80
2007,11,16,19,55,7.80
2007,11,16,19,56,7.80
2007,11,16,19,57,7.80
2007,11,16,19,58,7.80
2007,11,16,19,59,7.80
2007,11,16,20,00,7.80
2007,11,16,20,01,7.80
2007,11,16,20,02,7.90
2007,11,16,20,03,7.90
2007,11,16,20,04,7.90
2007,11,16,20,05,7.90
2007,11,16,20,06,7.90
2007,11,16,20,07,7.90
2007,11,16,20,08,7.90
2007,11,16,20,09,7.90
2007,11,16,20,10,7.90
2007,11,16,20,11,7.90
2007,11,16,20,12,7.90
2007,11,16,20,13,7.90
2007,11,16,20,14,7.90
2007,11,16,20,15,7.90
2007,11,16,20,16,7.90
2007,11,16,20,17,7.90
2007,11,16,20,18,7.90
2007,11,16,20,19,7.90
2007,11,16,20,20,7.80
2007,11,16,20,21,7.80
2007,11,16,20,22,7.80
2007,11,16,20,23,7.70
2007,11,16,20,24,7.70
2007,11,16,20,25,7.70
2007,11,16,20,26,7.70
2007,11,16,20,27,7.70
2007,11,16,20,28,7.70
2007,11,16,20,29,7.70
2007,11,16,20,30,7.70
2007,11,16,20,31,7.70
2007,11,16,20,32,7.70
2007,11,16,20,33,7.70
2007,11,16,20,34,7.70
2007,11,16,20,35,7.70
2007,11,16,20,36,7.60
2007,11,16,20,37,7.60
2007,11,16,20,38,7.60
2007,11,16,20,39,7.60
2007,11,16,20,40,7.60
2007,11,16,20,41,7.60
2007,11,16,20,42,7.70
2007,11,16,20,43,7.80
2007,11,16,20,44,7.90
2007,11,16,20,45,7.90
2007,11,16,20,46,7.90
2007,11,16,20,47,8.00
2007,11,16,20,48,8.00
2007,11,16,20,49,8.00
2007,11,16,20,50,8.10
2007,11,16,20,51,8.10
2007,11,16,20,52,8.10
2007,11,16,20,53,8.20
2007,11,16,20,54,8.20
2007,11,16,20,55,8.20
2007,11,16,20,56,8.20
2007,11,16,20,57,8.10
2007,11,16,20,58,8.10
2007,11,16,20,59,8.10
2007,11,16,21,00,8.10
2007,11,16,21,01,8.00
2007,11,16,21,02,8.00
2007,11,16,21,03,7.90
2007,11,16,21,04,7.80
2007,11,16,21,05,7.80
2007,11,16,21,06,7.70
2007,11,16,21,07,7.70
2007,11,16,21,08,7.70
2007,11,16,21,09,7.60
2007,11,16,21,10,7.60
2007,11,16,21,11,7.60
2007,11,16,21,12,7.60
2007,11,16,21,13,7.60
2007,11,16,21,14,7.70
2007,11,16,21,15,7.70
2007,11,16,21,16,7.70
2007,11,16,21,17,7.90
2007,11,16,21,18,8.10
2007,11,16,21,19,8.20
2007,11,16,21,20,8.40
2007,11,16,21,21,8.50
2007,11,16,21,22,8.60
2007,11,16,21,23,8.60
2007,11,16,21,24,8.70
2007,11,16,21,25,8.80
2007,11,16,21,26,8.80
2007,11,16,21,27,8.80
2007,11,16,21,28,8.80
2007,11,16,21,29,8.80
2007,11,16,21,30,8.80
2007,11,16,21,31,8.80
2007,11,16,21,32,8.80
2007,11,16,21,33,8.80
2007,11,16,21,34,8.80
2007,11,16,21,35,8.70
2007,11,16,21,36,8.70
2007,11,16,21,37,8.70
2007,11,16,21,38,8.70
2007,11,16,21,39,8.70
2007,11,16,21,40,8.70
2007,11,16,21,41,8.70
2007,11,16,21,42,8.70
2007,11,16,21,43,8.60
2007,11,16,21,44,8.60
2007,11,16,21,45,8.60
2007,11,16,21,46,8.50
2007,11,16,21,47,8.40
2007,11,16,21,48,8.40
2007,11,16,21,49,8.40
2007,11,16,21,50,8.30
2007,11,16,21,51,8.30
2007,11,16,21,52,8.30
2007,11,16,21,53,8.30
2007,11,16,21,54,8.30
2007,11,16,21,55,8.30
2007,11,16,21,56,8.30
2007,11,16,21,57,8.30
2007,11,16,21,58,8.30
2007,11,16,21,59,8.30
2007,11,16,22,00,8.30
2007,11,16,22,01,8.30
2007,11,16,22,02,8.30
2007,11,16,22,03,8.40
2007,11,16,22,04,8.40
2007,11,16,22,05,8.50
2007,11,16,22,06,8.50
2007,11,16,22,07,8.60
2007,11,16,22,08,8.60
2007,11,16,22,09,8.60
2007,11,16,22,10,8.60
2007,11,16,22,11,8.60
2007,11,16,22,12,8.60
2007,11,16,22,13,8.70
2007,11,16,22,14,8.70
2007,11,16,22,15,8.70
2007,11,16,22,16,8.70
2007,11,16,22,17,8.60
2007,11,16,22,18,8.40
2007,11,16,22,19,8.30
2007,11,16,22,20,8.20
2007,11,16,22,21,8.20
2007,11,16,22,22,8.10
2007,11,16,22,23,8.10
2007,11,16,22,24,8.10
2007,11,16,22,25,8.10
2007,11,16,22,26,8.10
2007,11,16,22,27,8.10
2007,11,16,22,28,8.00
2007,11,16,22,29,8.00
2007,11,16,22,30,8.00
2007,11,16,22,31,8.00
2007,11,16,22,32,8.00
2007,11,16,22,33,7.90
2007,11,16,22,34,7.90
2007,11,16,22,35,7.90
2007,11,16,22,36,7.80
2007,11,16,22,37,7.80
2007,11,16,22,38,7.90
2007,11,16,22,39,7.90
2007,11,16,22,40,7.90
2007,11,16,22,41,7.90
2007,11,16,22,42,7.90
2007,11,16,22,43,7.90
2007,11,16,22,44,7.90
2007,11,16,22,45,7.90
2007,11,16,22,46,8.00
2007,11,16,22,47,8.00
2007,11,16,22,48,8.00
2007,11,16,22,49,8.00
2007,11,16,22,50,8.00
2007,11,16,22,51,8.00
2007,11,16,22,52,7.90
2007,11,16,22,53,7.90
2007,11,16,22,54,7.90
2007,11,16,22,55,7.80
2007,11,16,22,56,7.80
2007,11,16,22,57,7.80
2007,11,16,22,58,7.80
2007,11,16,22,59,7.80
2007,11,16,23,00,7.80
2007,11,16,23,01,7.80
2007,11,16,23,02,7.80
2007,11,16,23,03,7.80
2007,11,16,23,04,7.80
2007,11,16,23,05,7.80
2007,11,16,23,06,7.70
2007,11,16,23,07,7.70
2007,11,16,23,08,7.70
2007,11,16,23,09,7.70
2007,11,16,23,10,7.80
2007,11,16,23,11,7.90
2007,11,16,23,12,8.10
2007,11,16,23,13,8.30
2007,11,16,23,14,8.40
2007,11,16,23,15,8.50
2007,11,16,23,16,8.60
2007,11,16,23,17,8.70
2007,11,16,23,18,8.70
2007,11,16,23,19,8.80
2007,11,16,23,20,8.80
2007,11,16,23,21,8.90
2007,11,16,23,22,8.90
2007,11,16,23,23,8.90
2007,11,16,23,24,8.90
2007,11,16,23,25,8.90
2007,11,16,23,26,8.90
2007,11,16,23,27,8.90
2007,11,16,23,28,8.90
2007,11,16,23,29,8.90
2007,11,16,23,30,8.90
2007,11,16,23,31,8.90
2007,11,16,23,32,8.90
2007,11,16,23,33,8.90
2007,11,16,23,34,8.90
2007,11,16,23,35,8.90
2007,11,16,23,36,8.90
2007,11,16,23,37,8.90
2007,11,16,23,38,8.80
2007,11,16,23,39,8.80
2007,11,16,23,40,8.80
2007,11,16,23,41,8.80
2007,11,16,23,42,8.80
2007,11,16,23,43,8.70
2007,11,16,23,44,8.70
2007,11,16,23,45,8.70
2007,11,16,23,46,8.60
2007,11,16,23,47,8.60
2007,11,16,23,48,8.60
2007,11,16,23,49,8.50
2007,11,16,23,50,8.40
2007,11,16,23,51,8.30
2007,11,16,23,52,8.30
2007,11,16,23,53,8.20
2007,11,16,23,54,8.10
2007,11,16,23,55,8.10
2007,11,16,23,56,8.10
2007,11,16,23,57,8.10
2007,11,16,23,58,8.10
2007,11,16,23,59,8.10
